YE0EEE-10 Weather Reports


time (UTC)temp
C
wind
direction
speed
KPH
gust
KPH
rain 1hr
cm
rain 24hr
cm
rain mn
cm
humidity
%
barometer
mb
20260509212822 26 0.0 0.0 0.00 0.00 0.00 79 1010.3
20260509212616 26 0.0 0.0 0.00 0.00 0.00 79 1010.2
20260509212420 26 0.0 0.0 0.00 0.00 0.00 79 1010.2
20260509212225 26 0.0 0.0 0.00 0.00 0.00 79 1010.2
20260509212019 26 0.0 0.0 0.00 0.00 0.00 79 1010.1
20260509211823 26 0.0 0.0 0.00 0.00 0.00 79 1010.1
20260509211617 26 0.0 0.0 0.00 0.00 0.00 79 1010.0
20260509211422 26 0.0 0.0 0.00 0.00 0.00 79 1010.0
20260509211215 26 0.0 0.0 0.00 0.00 0.00 79 1010.0
20260509211020 26 0.0 0.0 0.00 0.00 0.00 79 1010.1
20260509210824 26 0.0 0.0 0.00 0.00 0.00 79 1010.0
20260509210618 27 0.0 0.0 0.00 0.00 0.00 79 1010.0
20260509210423 27 0.0 0.0 0.00 0.00 0.00 79 1010.0
20260509210217 27 0.0 0.0 0.00 0.00 0.00 79 1010.1
20260509210021 27 0.0 0.0 0.00 0.00 0.00 79 1010.1
20260509205817 27 0.0 0.0 0.00 0.00 0.00 79 1010.1
20260509205620 27 0.0 0.0 0.00 0.00 0.00 79 1010.1
20260509205424 27 0.0 0.0 0.00 0.00 0.00 79 1010.2
20260509205218 27 0.0 0.0 0.00 0.00 0.00 79 1010.2
20260509205023 27 0.0 0.0 0.00 0.00 0.00 79 1010.3
20260509204817 27 0.0 0.0 0.00 0.00 0.00 79 1010.2
20260509204621 27 0.0 0.0 0.00 0.00 0.00 79 1010.3
20260509204415 27 0.0 0.0 0.00 0.00 0.00 79 1010.3
20260509204220 27 0.0 0.0 0.00 0.00 0.00 79 1010.3
20260509204025 27 0.0 0.0 0.00 0.00 0.00 79 1010.3
20260509203819 27 0.0 0.0 0.00 0.00 0.00 79 1010.4
20260509203623 27 0.0 0.0 0.00 0.00 0.00 79 1010.4
20260509203418 27 0.0 0.0 0.00 0.00 0.00 79 1010.4
20260509203222 27 0.0 0.0 0.00 0.00 0.00 79 1010.4
20260509203016 27 0.0 0.0 0.00 0.00 0.00 79 1010.5
20260509202820 27 0.0 0.0 0.00 0.00 0.00 79 1010.4
20260509202624 27 0.0 0.0 0.00 0.00 0.00 79 1010.4
20260509202418 27 0.0 0.0 0.00 0.00 0.00 79 1010.4
20260509202223 27 0.0 0.0 0.00 0.00 0.00 79 1010.4
20260509202017 27 0.0 0.0 0.00 0.00 0.00 79 1010.5
20260509201821 27 0.0 0.0 0.00 0.00 0.00 79 1010.5
20260509201615 27 0.0 0.0 0.00 0.00 0.00 79 1010.5
20260509201420 27 0.0 0.0 0.00 0.00 0.00 79 1010.5
20260509201224 27 0.0 0.0 0.00 0.00 0.00 79 1010.5
20260509201018 27 0.0 0.0 0.00 0.00 0.00 79 1010.5
20260509200823 27 0.0 0.0 0.00 0.00 0.00 79 1010.5
20260509200617 27 225 0.0 3.2 0.00 0.00 0.00 79 1010.5
20260509200422 27 45 1.6 3.2 0.00 0.00 0.00 79 1010.5
20260509200216 27 177 1.6 3.2 0.00 0.00 0.00 79 1010.5
20260509200020 27 90 1.6 3.2 0.00 0.00 0.00 79 1010.5
20260509195825 27 135 0.0 3.2 0.00 0.00 0.00 79 1010.5
20260509195618 27 0.0 3.2 0.00 0.00 0.00 76 1010.5
20260509195423 27 0.0 0.0 0.00 0.00 0.00 75 1010.5
20260509195217 27 0.0 1.6 0.00 0.00 0.00 75 1010.5
20260509195021 27 135 1.6 3.2 0.00 0.00 0.00 75 1010.5
20260509194815 27 180 1.6 3.2 0.00 0.00 0.00 75 1010.5
20260509194620 27 0.0 3.2 0.00 0.00 0.00 75 1010.5
20260509194425 27 3.2 4.8 0.00 0.00 0.00 75 1010.5
20260509194218 27 225 1.6 4.8 0.00 0.00 0.00 75 1010.5
20260509194023 27 0.0 0.0 0.00 0.00 0.00 75 1010.6
20260509193817 27 0.0 0.0 0.00 0.00 0.00 75 1010.5
20260509193621 27 225 0.0 3.2 0.00 0.00 0.00 75 1010.6
20260509193415 27 225 3.2 4.8 0.00 0.00 0.00 75 1010.6
20260509193220 27 225 3.2 4.8 0.00 0.00 0.00 75 1010.6
20260509193024 27 225 0.0 4.8 0.00 0.00 0.00 75 1010.6
20260509192818 27 225 3.2 6.4 0.00 0.00 0.00 75 1010.7
20260509192623 27 203 1.6 3.2 0.00 0.00 0.00 75 1010.7
20260509192417 27 135 1.6 3.2 0.00 0.00 0.00 75 1010.7
20260509192221 27 0.0 0.0 0.00 0.00 0.00 74 1010.7
20260509192016 27 0.0 0.0 0.00 0.00 0.00 74 1010.7
20260509191820 27 0.0 0.0 0.00 0.00 0.00 74 1010.7
20260509191624 27 0.0 0.0 0.00 0.00 0.00 74 1010.8
20260509191418 27 0.0 3.2 0.00 0.00 0.00 74 1010.8
20260509191223 27 0.0 0.0 0.00 0.00 0.00 74 1010.8
20260509191017 27 0.0 0.0 0.00 0.00 0.00 74 1010.8
20260509190822 27 0.0 0.0 0.00 0.00 0.00 74 1010.8
20260509190616 27 0.0 0.0 0.00 0.00 0.00 75 1010.8
20260509190420 27 0.0 0.0 0.00 0.00 0.00 75 1010.9
20260509190225 27 225 0.0 3.2 0.00 0.00 0.00 75 1010.9
20260509190018 27 166 3.2 3.2 0.00 0.00 0.00 75 1010.9
20260509185823 27 1.6 3.2 0.00 0.00 0.00 75 1010.9
20260509185617 27 63 1.6 3.2 0.00 0.00 0.00 75 1010.8
20260509185421 27 180 1.6 3.2 0.00 0.00 0.00 75 1010.9
20260509185215 27 135 0.0 3.2 0.00 0.00 0.00 75 1011.0
20260509185020 27 165 1.6 3.2 0.00 0.00 0.00 75 1011.0
20260509184824 27 195 3.2 6.4 0.00 0.00 0.00 75 1011.0
20260509184618 27 161 3.2 6.4 0.00 0.00 0.00 75 1011.0
20260509184423 27 1.6 6.4 0.00 0.00 0.00 74 1011.0
20260509184217 27 180 0.0 3.2 0.00 0.00 0.00 74 1011.1
20260509184021 27 184 1.6 3.2 0.00 0.00 0.00 74 1011.0
20260509183815 27 237 1.6 4.8 0.00 0.00 0.00 74 1011.1
20260509183620 27 225 1.6 4.8 0.00 0.00 0.00 74 1011.2
20260509183424 27 3.2 4.8 0.00 0.00 0.00 74 1011.1
20260509183218 27 0.0 4.8 0.00 0.00 0.00 74 1011.1
20260509183023 27 220 3.2 3.2 0.00 0.00 0.00 74 1011.2
20260509182817 27 174 1.6 3.2 0.00 0.00 0.00 74 1011.3
20260509182621 28 310 3.2 6.4 0.00 0.00 0.00 74 1011.3
20260509182415 28 315 4.8 6.4 0.00 0.00 0.00 74 1011.4
20260509182220 28 219 3.2 6.4 0.00 0.00 0.00 74 1011.5
20260509182024 28 169 3.2 3.2 0.00 0.00 0.00 74 1011.5
20260509181818 28 353 3.2 4.8 0.00 0.00 0.00 73 1011.6
20260509181623 28 315 1.6 4.8 0.00 0.00 0.00 73 1011.7
20260509181417 28 248 0.0 3.2 0.00 0.00 0.00 73 1011.7
20260509181221 28 11 3.2 4.8 0.00 0.00 0.00 73 1011.8
20260509181015 28 321 3.2 4.8 0.00 0.00 0.00 73 1011.9
20260509180820 28 0.0 0.0 0.00 0.00 0.00 73 1011.9
20260509180624 28 0.0 0.0 0.00 0.00 0.00 73 1011.8
20260509180418 28 0.0 0.0 0.00 0.00 0.00 73 1011.8
20260509180223 28 225 0.0 3.2 0.00 0.00 0.00 73 1011.9
20260509180017 28 202 3.2 4.8 0.00 0.00 0.00 73 1011.9
20260509175821 28 195 3.2 3.2 0.00 0.00 0.00 73 1011.9
20260509175616 28 135 3.2 6.4 0.00 0.00 0.00 73 1012.0
20260509175420 28 135 0.0 6.4 0.00 0.00 0.00 73 1011.9
20260509175224 28 315 1.6 3.2 0.00 0.00 0.00 73 1011.9
20260509175019 28 135 3.2 4.8 0.00 0.00 0.00 73 1012.0
20260509174823 28 162 1.6 4.8 0.00 0.00 0.00 73 1012.0
20260509174617 28 225 1.6 3.2 0.00 0.00 0.00 73 1012.0
20260509174421 28 0.0 3.2 0.00 0.00 0.00 73 1012.0
20260509174215 28 180 3.2 6.4 0.00 0.00 0.00 73 1012.0
20260509174020 28 180 3.2 6.4 0.00 0.00 0.00 73 1012.0
20260509173824 28 0.0 6.4 0.00 0.00 0.00 73 1012.0
20260509173618 28 0.0 0.0 0.00 0.00 0.00 73 1012.0
20260509173423 28 0.0 0.0 0.00 0.00 0.00 73 1012.0
20260509173217 28 0.0 0.0 0.00 0.00 0.00 73 1012.1
20260509173021 28 0.0 0.0 0.00 0.00 0.00 73 1012.1
20260509172815 28 0.0 0.0 0.00 0.00 0.00 73 1012.1
20260509172620 28 285 1.6 4.8 0.00 0.00 0.00 73 1012.1
20260509172424 28 225 1.6 4.8 0.00 0.00 0.00 73 1012.2
20260509172218 28 0.0 0.0 0.00 0.00 0.00 73 1012.2
20260509172023 28 0.0 0.0 0.00 0.00 0.00 73 1012.2
20260509171817 28 0.0 0.0 0.00 0.00 0.00 73 1012.2
20260509171621 28 0.0 0.0 0.00 0.00 0.00 73 1012.3
20260509171415 28 0.0 0.0 0.00 0.00 0.00 73 1012.3
20260509171220 28 0.0 0.0 0.00 0.00 0.00 73 1012.3
20260509171024 28 0.0 0.0 0.00 0.00 0.00 73 1012.3
20260509170818 28 0.0 0.0 0.00 0.00 0.00 73 1012.4
20260509170623 28 0.0 0.0 0.00 0.00 0.00 73 1012.5
20260509170417 28 0.0 0.0 0.00 0.00 0.00 73 1012.5
20260509170221 28 0.0 0.0 0.00 0.00 0.00 73 1012.6
20260509170026 28 0.0 0.0 0.00 0.00 0.00 73 1012.5
20260509165820 28 0.0 0.0 0.00 0.00 0.00 73 1012.5
20260509165624 28 0.0 0.0 0.00 0.00 0.00 73 1012.5
20260509165418 28 135 1.6 4.8 0.00 0.00 0.00 73 1012.6
20260509165223 28 158 1.6 4.8 0.00 0.00 0.00 73 1012.6
20260509165017 28 0.0 0.0 0.00 0.00 0.00 73 1012.6
20260509164821 28 180 1.6 4.8 0.00 0.00 0.00 73 1012.6
20260509164625 28 201 3.2 4.8 0.00 0.00 0.00 73 1012.6
20260509164419 28 135 1.6 4.8 0.00 0.00 0.00 73 1012.6
20260509164224 28 143 3.2 6.4 0.00 0.00 0.00 73 1012.6
20260509164018 28 225 3.2 6.4 0.00 0.00 0.00 73 1012.5
20260509163823 28 225 3.2 4.8 0.00 0.00 0.00 73 1012.6
20260509163617 28 0.0 0.0 0.00 0.00 0.00 73 1012.6
20260509163421 28 315 1.6 3.2 0.00 0.00 0.00 73 1012.6
20260509163215 28 135 1.6 3.2 0.00 0.00 0.00 73 1012.7
20260509163020 28 135 4.8 6.4 0.00 0.00 0.00 73 1012.6
20260509162824 28 3.2 6.4 0.00 0.00 0.00 73 1012.6
20260509162618 28 0.0 4.8 0.00 0.00 0.00 72 1012.5
20260509162423 28 0.0 0.0 0.00 0.00 0.00 72 1012.5
20260509162217 28 0.0 0.0 0.00 0.00 0.00 72 1012.5
20260509162021 28 0.0 0.0 0.00 0.00 0.00 72 1012.6
20260509161815 28 0.0 0.0 0.00 0.00 0.00 72 1012.5
20260509161620 28 0.0 0.0 0.00 0.00 0.00 72 1012.5
20260509161424 28 0.0 0.0 0.00 0.00 0.00 72 1012.5
20260509161218 28 0.0 0.0 0.00 0.00 0.00 72 1012.4
20260509161022 28 0.0 0.0 0.00 0.00 0.00 72 1012.4
20260509160817 28 0.0 0.0 0.00 0.00 0.00 72 1012.4
20260509160621 28 0.0 0.0 0.00 0.00 0.00 72 1012.5
20260509160425 28 0.0 0.0 0.00 0.00 0.00 72 1012.4
20260509160220 28 0.0 0.0 0.00 0.00 0.00 72 1012.5
20260509160024 28 0.0 0.0 0.00 0.00 0.00 72 1012.4
20260509155818 28 0.0 0.0 0.00 0.00 0.00 72 1012.4
20260509155622 28 0.0 0.0 0.00 0.00 0.00 72 1012.5
20260509155416 28 0.0 0.0 0.00 0.00 0.00 72 1012.5
20260509155221 28 0.0 0.0 0.00 0.00 0.00 72 1012.5
20260509155026 28 0.0 0.0 0.00 0.00 0.00 71 1012.5
20260509154819 28 0.0 0.0 0.00 0.00 0.00 71 1012.5
20260509154624 28 45 1.6 3.2 0.00 0.00 0.00 71 1012.5
20260509154419 28 0.0 3.2 0.00 0.00 0.00 71 1012.5
20260509154222 28 0.0 0.0 0.00 0.00 0.00 71 1012.4
20260509154017 28 0.0 0.0 0.00 0.00 0.00 71 1012.4
20260509153821 28 0.0 0.0 0.00 0.00 0.00 71 1012.5
20260509153625 28 0.0 0.0 0.00 0.00 0.00 71 1012.4
20260509153419 28 0.0 0.0 0.00 0.00 0.00 71 1012.4
20260509153224 28 0.0 0.0 0.00 0.00 0.00 71 1012.3
20260509153018 28 0.0 0.0 0.00 0.00 0.00 71 1012.2
20260509152822 28 0.0 0.0 0.00 0.00 0.00 71 1012.2
20260509152617 28 0.0 0.0 0.00 0.00 0.00 71 1012.2
20260509152421 28 0.0 0.0 0.00 0.00 0.00 71 1012.1
20260509152225 28 0.0 0.0 0.00 0.00 0.00 71 1012.1
20260509152020 28 0.0 0.0 0.00 0.00 0.00 71 1012.1
20260509151824 28 0.0 0.0 0.00 0.00 0.00 71 1012.1
20260509151618 28 0.0 0.0 0.00 0.00 0.00 71 1012.1
20260509151422 28 0.0 0.0 0.00 0.00 0.00 71 1012.0
20260509151216 28 0.0 0.0 0.00 0.00 0.00 71 1012.0
20260509151021 28 225 1.6 3.2 0.00 0.00 0.00 70 1012.0
20260509150825 28 225 0.0 3.2 0.00 0.00 0.00 70 1012.0
20260509150619 28 0.0 0.0 0.00 0.00 0.00 70 1012.0
20260509150424 28 45 0.0 3.2 0.00 0.00 0.00 70 1012.0
20260509150218 28 19 1.6 3.2 0.00 0.00 0.00 70 1012.0
20260509150023 28 37 1.6 4.8 0.00 0.00 0.00 70 1012.0
20260509145817 28 45 1.6 4.8 0.00 0.00 0.00 70 1012.0
20260509145621 28 315 3.2 4.8 0.00 0.00 0.00 70 1012.0
20260509145416 28 315 0.0 3.2 0.00 0.00 0.00 70 1012.0
20260509145220 28 0.0 1.6 0.00 0.00 0.00 70 1012.0
20260509145024 28 45 1.6 3.2 0.00 0.00 0.00 70 1012.0
20260509144818 28 0.0 3.2 0.00 0.00 0.00 70 1012.0
20260509144623 28 315 1.6 6.4 0.00 0.00 0.00 70 1012.1
20260509144417 29 315 3.2 6.4 0.00 0.00 0.00 70 1012.0
20260509144221 29 338 3.2 4.8 0.00 0.00 0.00 70 1012.0
20260509144015 28 358 3.2 4.8 0.00 0.00 0.00 70 1012.0
20260509143820 28 7 3.2 6.4 0.00 0.00 0.00 70 1012.0
20260509143624 28 0 1.6 6.4 0.00 0.00 0.00 70 1012.1
20260509143418 29 0 1.6 4.8 0.00 0.00 0.00 70 1012.1
20260509143223 29 135 3.2 6.4 0.00 0.00 0.00 70 1012.1
20260509143017 29 147 1.6 6.4 0.00 0.00 0.00 70 1012.0
20260509142821 29 225 0.0 3.2 0.00 0.00 0.00 70 1012.0
20260509142616 29 225 3.2 6.4 0.00 0.00 0.00 70 1012.0
20260509142420 29 197 4.8 8.0 0.00 0.00 0.00 70 1012.0
20260509142224 29 346 4.8 8.0 0.00 0.00 0.00 70 1012.0
20260509142018 29 0 4.8 6.4 0.00 0.00 0.00 70 1012.0
20260509141823 29 225 4.8 8.0 0.00 0.00 0.00 70 1012.0
20260509141617 29 245 4.8 8.0 0.00 0.00 0.00 70 1012.0
20260509141421 29 261 3.2 6.4 0.00 0.00 0.00 70 1012.0
20260509141225 29 225 3.2 4.8 0.00 0.00 0.00 70 1012.0
20260509141020 29 239 4.8 6.4 0.00 0.00 0.00 70 1011.9
20260509140825 29 352 1.6 6.4 0.00 0.00 0.00 70 1011.9
20260509140618 29 157 4.8 6.4 0.00 0.00 0.00 69 1011.9
20260509140422 29 135 6.4 6.4 0.00 0.00 0.00 69 1011.8
20260509140221 29 225 3.2 6.4 0.00 0.00 0.00 69 1011.8
20260509140021 29 232 4.8 6.4 0.00 0.00 0.00 69 1011.8
20260509135815 29 301 6.4 8.0 0.00 0.00 0.00 69 1011.8
20260509135620 29 237 6.4 9.7 0.00 0.00 0.00 68 1011.8
20260509135424 29 218 3.2 6.4 0.00 0.00 0.00 68 1011.8
20260509135218 29 225 4.8 6.4 0.00 0.00 0.00 68 1011.8
20260509135023 29 203 4.8 6.4 0.00 0.00 0.00 68 1011.8
20260509134817 29 225 6.4 11.3 0.00 0.00 0.00 68 1011.9
20260509134621 29 215 3.2 11.3 0.00 0.00 0.00 68 1011.9
20260509134426 29 188 3.2 4.8 0.00 0.00 0.00 68 1011.9
20260509134219 29 240 4.8 6.4 0.00 0.00 0.00 68 1011.9
20260509134024 29 315 3.2 4.8 0.00 0.00 0.00 68 1011.9
20260509133818 29 269 3.2 6.4 0.00 0.00 0.00 68 1012.0
20260509133623 29 264 3.2 6.4 0.00 0.00 0.00 68 1012.0
20260509133417 29 212 3.2 6.4 0.00 0.00 0.00 68 1011.9
20260509133223 29 135 3.2 6.4 0.00 0.00 0.00 68 1012.0
20260509133015 29 135 1.6 6.4 0.00 0.00 0.00 68 1011.9
20260509132820 29 225 3.2 6.4 0.00 0.00 0.00 68 1011.9
20260509132624 29 225 0.0 3.2 0.00 0.00 0.00 68 1011.9
20260509132418 29 0.0 0.0 0.00 0.00 0.00 68 1011.8
20260509132223 29 0.0 0.0 0.00 0.00 0.00 68 1011.7
20260509132017 29 0.0 0.0 0.00 0.00 0.00 68 1011.7
20260509131821 29 0.0 0.0 0.00 0.00 0.00 68 1011.6
20260509131615 29 135 1.6 4.8 0.00 0.00 0.00 68 1011.6
20260509131420 29 135 1.6 4.8 0.00 0.00 0.00 68 1011.5
20260509131224 29 135 0.0 3.2 0.00 0.00 0.00 68 1011.5
20260509131018 29 135 3.2 4.8 0.00 0.00 0.00 68 1011.4
20260509130823 29 159 1.6 4.8 0.00 0.00 0.00 68 1011.4
20260509130617 29 135 1.6 4.8 0.00 0.00 0.00 68 1011.3
20260509130421 29 315 0.0 3.2 0.00 0.00 0.00 68 1011.4
20260509130216 29 219 1.6 3.2 0.00 0.00 0.00 68 1011.3
20260509130020 29 180 0.0 3.2 0.00 0.00 0.00 68 1011.3
20260509125824 29 135 1.6 3.2 0.00 0.00 0.00 69 1011.4
20260509125619 29 0.0 1.6 0.00 0.00 0.00 69 1011.5
20260509125423 29 219 1.6 3.2 0.00 0.00 0.00 69 1011.5
20260509125217 29 210 3.2 6.4 0.00 0.00 0.00 68 1011.5
20260509125022 29 225 0.0 6.4 0.00 0.00 0.00 68 1011.6
20260509124815 29 0.0 0.0 0.00 0.00 0.00 68 1011.5
20260509124620 29 180 1.6 3.2 0.00 0.00 0.00 67 1011.5
20260509124424 29 165 1.6 3.2 0.00 0.00 0.00 67 1011.5
20260509124218 29 180 0.0 3.2 0.00 0.00 0.00 67 1011.4
20260509124023 29 0.0 0.0 0.00 0.00 0.00 67 1011.4
20260509123817 29 0.0 0.0 0.00 0.00 0.00 67 1011.4
20260509123621 29 0.0 0.0 0.00 0.00 0.00 67 1011.4
20260509123415 29 0.0 0.0 0.00 0.00 0.00 68 1011.3
20260509123220 30 0.0 3.2 0.00 0.00 0.00 68 1011.3
20260509123024 30 175 1.6 4.8 0.00 0.00 0.00 67 1011.3
20260509122819 30 225 1.6 4.8 0.00 0.00 0.00 67 1011.3
20260509122623 30 0.0 0.0 0.00 0.00 0.00 67 1011.2
20260509122417 30 0.0 0.0 0.00 0.00 0.00 67 1011.3
20260509122222 30 0.0 0.0 0.00 0.00 0.00 67 1011.2
20260509122016 30 0.0 0.0 0.00 0.00 0.00 67 1011.2
20260509121820 29 0.0 0.0 0.00 0.00 0.00 67 1011.3
20260509121624 29 0.0 0.0 0.00 0.00 0.00 67 1011.3
20260509121419 29 0.0 0.0 0.00 0.00 0.00 66 1011.2
20260509121223 29 0.0 0.0 0.00 0.00 0.00 66 1011.2
20260509121017 29 0.0 0.0 0.00 0.00 0.00 66 1011.1
20260509120821 29 0.0 0.0 0.00 0.00 0.00 66 1011.1
20260509120615 29 0.0 0.0 0.00 0.00 0.00 66 1011.1
20260509120420 29 0.0 0.0 0.00 0.00 0.00 66 1011.1
20260509120225 29 0.0 0.0 0.00 0.00 0.00 66 1011.0
20260509120018 29 0.0 0.0 0.00 0.00 0.00 66 1011.0
20260509115823 29 0.0 0.0 0.00 0.00 0.00 66 1010.9
20260509115617 29 0.0 0.0 0.00 0.00 0.00 66 1010.9
20260509115421 29 0.0 0.0 0.00 0.00 0.00 66 1010.9
20260509115216 29 0.0 0.0 0.00 0.00 0.00 66 1010.9
20260509115020 29 0.0 0.0 0.00 0.00 0.00 66 1010.9
20260509114825 29 0.0 0.0 0.00 0.00 0.00 66 1010.9
20260509114618 29 0.0 0.0 0.00 0.00 0.00 66 1010.9
20260509114423 29 0.0 0.0 0.00 0.00 0.00 66 1010.9
20260509114217 29 0.0 0.0 0.00 0.00 0.00 66 1010.8
20260509114021 29 0.0 0.0 0.00 0.00 0.00 66 1010.8
20260509113815 30 0.0 0.0 0.00 0.00 0.00 66 1010.6
20260509113620 30 0.0 0.0 0.00 0.00 0.00 66 1010.6
20260509113424 30 0.0 0.0 0.00 0.00 0.00 66 1010.6
20260509113219 30 0.0 0.0 0.00 0.00 0.00 66 1010.6
20260509113023 30 0.0 0.0 0.00 0.00 0.00 66 1010.7
20260509112817 30 0.0 0.0 0.00 0.00 0.00 66 1010.7
20260509112622 30 0.0 0.0 0.00 0.00 0.00 66 1010.6
20260509112415 30 0.0 0.0 0.00 0.00 0.00 66 1010.6
20260509112220 30 0.0 0.0 0.00 0.00 0.00 66 1010.6
20260509112024 30 0.0 0.0 0.00 0.00 0.00 67 1010.6
20260509111818 30 0.0 0.0 0.00 0.00 0.00 67 1010.6
20260509111623 30 0.0 0.0 0.00 0.00 0.00 67 1010.5
20260509111417 30 0.0 0.0 0.00 0.00 0.00 67 1010.4
20260509111221 30 0.0 0.0 0.00 0.00 0.00 67 1010.5
20260509111015 29 135 0.0 3.2 0.00 0.00 0.00 67 1010.4
20260509110820 29 135 0.0 3.2 0.00 0.00 0.00 67 1010.5
20260509110624 29 0.0 1.6 0.00 0.00 0.00 67 1010.4
20260509110418 29 135 1.6 4.8 0.00 0.00 0.00 67 1010.3
20260509110223 29 135 3.2 6.4 0.00 0.00 0.00 67 1010.3
20260509110017 29 135 1.6 6.4 0.00 0.00 0.00 67 1010.4
20260509105821 29 135 3.2 6.4 0.00 0.00 0.00 67 1010.3
20260509105616 30 135 4.8 6.4 0.00 0.00 0.00 67 1010.3
20260509105420 30 135 6.4 11.3 0.00 0.00 0.00 66 1010.2
20260509105224 30 135 11.3 14.5 0.00 0.00 0.00 66 1010.2
20260509105018 30 146 8.0 14.5 0.00 0.00 0.00 66 1010.2
20260509104823 30 149 8.0 12.9 0.00 0.00 0.00 66 1010.1
20260509104617 30 135 8.0 12.9 0.00 0.00 0.00 66 1010.1
20260509104422 30 135 6.4 11.3 0.00 0.00 0.00 67 1009.9
20260509104215 30 135 8.0 12.9 0.00 0.00 0.00 67 1010.0
20260509104020 31 8.0 12.9 0.00 0.00 0.00 67 1010.0
20260509103825 31 135 9.7 16.1 0.00 0.00 0.00 67 1010.1
20260509103618 31 135 4.8 9.7 0.00 0.00 0.00 67 1010.0
20260509103423 31 135 4.8 8.0 0.00 0.00 0.00 67 1010.0
20260509103217 31 135 6.4 9.7 0.00 0.00 0.00 67 1010.0
20260509103021 31 135 8.0 11.3 0.00 0.00 0.00 66 1009.9
20260509102815 31 135 4.8 9.7 0.00 0.00 0.00 66 1009.9
20260509102620 31 135 6.4 8.0 0.00 0.00 0.00 66 1009.9
20260509102424 31 135 4.8 8.0 0.00 0.00 0.00 66 1009.9
20260509102220 31 135 3.2 8.0 0.00 0.00 0.00 66 1009.9
20260509102023 31 135 6.4 8.0 0.00 0.00 0.00 66 1009.8
20260509101817 31 135 4.8 8.0 0.00 0.00 0.00 67 1009.8
20260509101621 31 135 4.8 8.0 0.00 0.00 0.00 67 1009.7
20260509101416 31 132 4.8 9.7 0.00 0.00 0.00 67 1009.7
20260509101220 31 121 6.4 9.7 0.00 0.00 0.00 66 1009.6
20260509101024 31 135 6.4 12.9 0.00 0.00 0.00 66 1009.5
20260509100819 31 135 8.0 12.9 0.00 0.00 0.00 66 1009.4
20260509100623 31 135 6.4 9.7 0.00 0.00 0.00 66 1009.4
20260509100417 31 135 6.4 9.7 0.00 0.00 0.00 66 1009.3
20260509100222 31 135 8.0 11.3 0.00 0.00 0.00 66 1009.3
20260509100016 31 45 4.8 9.7 0.00 0.00 0.00 66 1009.3
20260509095820 31 6.4 8.0 0.00 0.00 0.00 66 1009.3
20260509095625 31 153 8.0 11.3 0.00 0.00 0.00 66 1009.3
20260509095418 31 135 8.0 12.9 0.00 0.00 0.00 66 1009.3
20260509095223 31 135 9.7 12.9 0.00 0.00 0.00 66 1009.3
20260509095017 31 135 6.4 12.9 0.00 0.00 0.00 65 1009.3
20260509094822 31 135 6.4 9.7 0.00 0.00 0.00 65 1009.3
20260509094616 31 285 6.4 12.9 0.00 0.00 0.00 65 1009.4
20260509094420 31 135 8.0 12.9 0.00 0.00 0.00 65 1009.4
20260509094225 31 56 8.0 12.9 0.00 0.00 0.00 64 1009.4
20260509094019 31 135 9.7 16.1 0.00 0.00 0.00 64 1009.4
20260509093823 31 135 8.0 12.9 0.00 0.00 0.00 64 1009.3
20260509093617 31 135 6.4 9.7 0.00 0.00 0.00 63 1009.3
20260509093422 32 135 8.0 12.9 0.00 0.00 0.00 63 1009.3
20260509093216 32 135 8.0 12.9 0.00 0.00 0.00 63 1009.2
20260509093020 32 135 8.0 12.9 0.00 0.00 0.00 62 1009.1
20260509092825 32 135 8.0 12.9 0.00 0.00 0.00 62 1009.1
20260509092619 32 135 6.4 12.9 0.00 0.00 0.00 61 1009.2
20260509092423 32 135 6.4 11.3 0.00 0.00 0.00 61 1009.3
20260509092217 32 135 8.0 12.9 0.00 0.00 0.00 61 1009.2
20260509092022 32 135 8.0 16.1 0.00 0.00 0.00 59 1009.2
20260509091816 32 135 8.0 16.1 0.00 0.00 0.00 56 1009.1
20260509091620 32 135 8.0 11.3 0.00 0.00 0.00 55 1009.0
20260509091425 32 135 8.0 12.9 0.00 0.00 0.00 55 1009.0
20260509091219 32 135 6.4 12.9 0.00 0.00 0.00 54 1008.9
20260509091023 32 135 6.4 8.0 0.00 0.00 0.00 53 1008.9
20260509090817 32 135 6.4 9.7 0.00 0.00 0.00 53 1008.8
20260509090622 32 135 6.4 12.9 0.00 0.00 0.00 52 1008.8
20260509090416 33 135 6.4 12.9 0.00 0.00 0.00 52 1008.8
20260509090220 33 135 8.0 12.9 0.00 0.00 0.00 52 1008.7
20260509090025 33 135 8.0 14.5 0.00 0.00 0.00 52 1008.7
20260509085819 33 8.0 12.9 0.00 0.00 0.00 51 1008.7
20260509085623 33 8.0 12.9 0.00 0.00 0.00 51 1008.8
20260509085417 33 135 6.4 12.9 0.00 0.00 0.00 51 1008.6
20260509085222 33 135 8.0 12.9 0.00 0.00 0.00 51 1008.7
20260509085016 33 135 6.4 11.3 0.00 0.00 0.00 50 1008.7
20260509084820 33 135 8.0 11.3 0.00 0.00 0.00 50 1008.6
20260509084625 33 135 8.0 11.3 0.00 0.00 0.00 50 1008.6
20260509084419 33 135 6.4 6.4 0.00 0.00 0.00 50 1008.5
20260509084223 33 135 6.4 11.3 0.00 0.00 0.00 50 1008.5
20260509084017 33 135 9.7 14.5 0.00 0.00 0.00 50 1008.4
20260509083822 34 135 9.7 14.5 0.00 0.00 0.00 50 1008.3
20260509083616 34 135 6.4 12.9 0.00 0.00 0.00 50 1008.4
20260509083420 34 135 6.4 12.9 0.00 0.00 0.00 49 1008.5
20260509083225 34 135 8.0 12.9 0.00 0.00 0.00 49 1008.4
20260509083018 34 108 9.7 16.1 0.00 0.00 0.00 49 1008.5
20260509082823 34 140 8.0 12.9 0.00 0.00 0.00 49 1008.5
20260509082617 35 135 6.4 11.3 0.00 0.00 0.00 48 1008.4
20260509082421 35 90 8.0 12.9 0.00 0.00 0.00 48 1008.4
20260509082215 35 146 9.7 12.9 0.00 0.00 0.00 47 1008.5
20260509082020 35 167 9.7 12.9 0.00 0.00 0.00 47 1008.4
20260509081824 35 135 8.0 11.3 0.00 0.00 0.00 46 1008.4
20260509081618 35 135 9.7 11.3 0.00 0.00 0.00 45 1008.4
20260509081423 36 138 8.0 12.9 0.00 0.00 0.00 46 1008.3
20260509081217 36 150 8.0 12.9 0.00 0.00 0.00 46 1008.4
20260509081022 36 135 8.0 12.9 0.00 0.00 0.00 46 1008.4
20260509080816 36 173 6.4 11.3 0.00 0.00 0.00 45 1008.4
20260509080620 36 135 6.4 11.3 0.00 0.00 0.00 46 1008.5
20260509080425 36 75 4.8 9.7 0.00 0.00 0.00 46 1008.5
20260509080219 36 131 8.0 12.9 0.00 0.00 0.00 46 1008.4
20260509080023 36 3.2 12.9 0.00 0.00 0.00 46 1008.5
20260509075817 36 117 6.4 14.5 0.00 0.00 0.00 46 1008.5
20260509075622 36 135 9.7 14.5 0.00 0.00 0.00 46 1008.6
20260509075416 36 135 9.7 14.5 0.00 0.00 0.00 46 1008.5
20260509075220 36 234 6.4 8.0 0.00 0.00 0.00 46 1008.5
20260509075025 36 139 6.4 8.0 0.00 0.00 0.00 46 1008.5
20260509074819 36 135 6.4 9.7 0.00 0.00 0.00 47 1008.6
20260509074623 36 135 6.4 12.9 0.00 0.00 0.00 47 1008.5
20260509074417 36 11.3 17.7 0.00 0.00 0.00 48 1008.6
20260509074221 36 45 8.0 14.5 0.00 0.00 0.00 50 1008.7
20260509074016 36 4.8 9.7 0.00 0.00 0.00 49 1008.7
20260509073820 36 135 8.0 12.9 0.00 0.00 0.00 48 1008.7
20260509073624 36 108 8.0 12.9 0.00 0.00 0.00 48 1008.6
20260509073418 36 135 8.0 12.9 0.00 0.00 0.00 48 1008.7
20260509073223 36 45 9.7 14.5 0.00 0.00 0.00 48 1008.7
20260509073017 36 45 8.0 14.5 0.00 0.00 0.00 50 1008.8
20260509072821 36 45 6.4 11.3 0.00 0.00 0.00 50 1008.8
20260509072616 36 101 6.4 12.9 0.00 0.00 0.00 50 1008.7
20260509072420 35 360 11.3 14.5 0.00 0.00 0.00 50 1008.8
20260509072224 35 128 6.4 14.5 0.00 0.00 0.00 51 1008.9
20260509072019 35 61 4.8 8.0 0.00 0.00 0.00 52 1008.9
20260509071823 35 135 6.4 12.9 0.00 0.00 0.00 52 1009.0
20260509071617 34 135 3.2 4.8 0.00 0.00 0.00 52 1009.0
20260509071422 34 135 6.4 8.0 0.00 0.00 0.00 52 1009.1
20260509071215 34 135 8.0 16.1 0.00 0.00 0.00 52 1009.0
20260509071020 34 109 11.3 16.1 0.00 0.00 0.00 53 1009.1
20260509070824 33 135 6.4 11.3 0.00 0.00 0.00 54 1009.1
20260509070618 33 170 6.4 12.9 0.00 0.00 0.00 56 1009.1
20260509070423 33 91 8.0 12.9 0.00 0.00 0.00 56 1009.0
20260509070217 33 135 6.4 12.9 0.00 0.00 0.00 57 1009.0
20260509070021 33 135 6.4 12.9 0.00 0.00 0.00 57 1009.1
20260509065815 33 123 8.0 14.5 0.00 0.00 0.00 57 1009.2
20260509065620 33 110 9.7 16.1 0.00 0.00 0.00 58 1009.2
20260509065424 32 0 6.4 9.7 0.00 0.00 0.00 58 1009.2
20260509065218 32 360 8.0 14.5 0.00 0.00 0.00 58 1009.2
20260509065023 32 135 9.7 12.9 0.00 0.00 0.00 57 1009.2
20260509064817 32 135 8.0 12.9 0.00 0.00 0.00 58 1009.4
20260509064621 32 135 6.4 12.9 0.00 0.00 0.00 59 1009.4
20260509064415 32 135 6.4 14.5 0.00 0.00 0.00 59 1009.4
20260509064220 32 135 8.0 14.5 0.00 0.00 0.00 58 1009.4
20260509064024 32 135 9.7 14.5 0.00 0.00 0.00 58 1009.4
20260509063818 32 55 8.0 14.5 0.00 0.00 0.00 58 1009.5
20260509063623 32 135 6.4 12.9 0.00 0.00 0.00 58 1009.4
20260509063417 32 135 11.3 17.7 0.00 0.00 0.00 57 1009.5
20260509063221 32 11.3 16.1 0.00 0.00 0.00 55 1009.5
20260509063015 32 135 9.7 16.1 0.00 0.00 0.00 56 1009.5
20260509062820 33 135 11.3 19.3 0.00 0.00 0.00 56 1009.5
20260509062625 33 135 12.9 19.3 0.00 0.00 0.00 55 1009.5
20260509062418 33 135 9.7 14.5 0.00 0.00 0.00 55 1009.5
20260509062223 33 135 11.3 16.1 0.00 0.00 0.00 55 1009.5
20260509062017 33 135 11.3 14.5 0.00 0.00 0.00 55 1009.5
20260509061822 33 135 11.3 17.7 0.00 0.00 0.00 54 1009.6
20260509061615 33 135 9.7 16.1 0.00 0.00 0.00 54 1009.5
20260509061420 33 144 9.7 16.1 0.00 0.00 0.00 53 1009.6
20260509061224 33 135 8.0 12.9 0.00 0.00 0.00 53 1009.6
20260509061018 34 180 9.7 17.7 0.00 0.00 0.00 52 1009.7
20260509060823 34 180 9.7 17.7 0.00 0.00 0.00 52 1009.6
20260509060617 35 135 11.3 17.7 0.00 0.00 0.00 51 1009.7
20260509060421 35 8.0 14.5 0.00 0.00 0.00 51 1009.6
20260509060215 35 135 8.0 12.9 0.00 0.00 0.00 51 1009.6
20260509060020 35 135 9.7 12.9 0.00 0.00 0.00 50 1009.6
20260509055824 35 135 9.7 14.5 0.00 0.00 0.00 50 1009.6
20260509055618 35 135 9.7 14.5 0.00 0.00 0.00 50 1009.6
20260509055423 36 135 11.3 17.7 0.00 0.00 0.00 50 1009.6
20260509055217 35 0 11.3 12.9 0.00 0.00 0.00 50 1009.6
20260509055021 36 33 9.7 12.9 0.00 0.00 0.00 50 1009.7
20260509054815 36 135 9.7 16.1 0.00 0.00 0.00 50 1009.7
20260509054620 35 3.2 16.1 0.00 0.00 0.00 51 1009.8
20260509054424 35 135 6.4 8.0 0.00 0.00 0.00 50 1009.8
20260509054218 35 117 6.4 11.3 0.00 0.00 0.00 50 1009.8
20260509054023 35 93 4.8 11.3 0.00 0.00 0.00 50 1009.8
20260509053817 35 340 8.0 14.5 0.00 0.00 0.00 51 1009.8
20260509053621 35 84 6.4 9.7 0.00 0.00 0.00 51 1009.8
20260509053415 35 125 6.4 12.9 0.00 0.00 0.00 50 1009.9
20260509053220 35 135 8.0 12.9 0.00 0.00 0.00 50 1009.9
20260509053024 35 137 9.7 17.7 0.00 0.00 0.00 51 1009.9
20260509052818 35 169 8.0 12.9 0.00 0.00 0.00 51 1010.0
20260509052623 35 135 8.0 19.3 0.00 0.00 0.00 51 1010.0
20260509052417 35 135 11.3 19.3 0.00 0.00 0.00 52 1010.0
20260509052221 35 135 11.3 14.5 0.00 0.00 0.00 52 1010.0
20260509052026 35 135 8.0 14.5 0.00 0.00 0.00 52 1010.0
20260509051820 34 134 8.0 12.9 0.00 0.00 0.00 53 1010.0
20260509051624 34 93 9.7 12.9 0.00 0.00 0.00 53 1010.1
20260509051418 33 126 8.0 12.9 0.00 0.00 0.00 54 1010.0
20260509051223 33 127 8.0 11.3 0.00 0.00 0.00 54 1010.1
20260509051017 33 135 8.0 12.9 0.00 0.00 0.00 53 1010.1
20260509050821 33 67 8.0 11.3 0.00 0.00 0.00 53 1010.1
20260509050615 33 143 8.0 12.9 0.00 0.00 0.00 52 1010.2
20260509050420 33 132 8.0 16.1 0.00 0.00 0.00 52 1010.2
20260509050224 34 154 9.7 12.9 0.00 0.00 0.00 51 1010.1
20260509050018 34 135 4.8 12.9 0.00 0.00 0.00 51 1010.2
20260509045822 34 135 1.6 3.2 0.00 0.00 0.00 50 1010.1
20260509045617 35 114 1.6 6.4 0.00 0.00 0.00 50 1010.3
20260509045421 35 135 3.2 8.0 0.00 0.00 0.00 49 1010.2
20260509045226 35 135 1.6 8.0 0.00 0.00 0.00 48 1010.3
20260509045021 35 0.0 4.8 0.00 0.00 0.00 49 1010.3
20260509044824 35 135 1.6 4.8 0.00 0.00 0.00 48 1010.3
20260509044618 36 135 4.8 11.3 0.00 0.00 0.00 47 1010.3
20260509044422 36 135 1.6 9.7 0.00 0.00 0.00 49 1010.4
20260509044216 36 0.0 0.0 0.00 0.00 0.00 48 1010.4
20260509044021 36 135 1.6 4.8 0.00 0.00 0.00 47 1010.4
20260509043826 36 135 0.0 4.8 0.00 0.00 0.00 49 1010.5
20260509043619 36 0.0 0.0 0.00 0.00 0.00 49 1010.7
20260509043424 35 135 0.0 3.2 0.00 0.00 0.00 48 1010.6
20260509043218 36 135 1.6 4.8 0.00 0.00 0.00 48 1010.7
20260509043023 36 151 3.2 6.4 0.00 0.00 0.00 47 1010.7
20260509042817 36 0.0 0.0 0.00 0.00 0.00 47 1010.7
20260509042621 36 172 4.8 11.3 0.00 0.00 0.00 48 1010.7
20260509042415 36 315 1.6 6.4 0.00 0.00 0.00 49 1010.8
20260509042220 36 158 4.8 8.0 0.00 0.00 0.00 48 1010.8
20260509042024 36 144 6.4 8.0 0.00 0.00 0.00 47 1010.8
20260509041818 36 67 6.4 8.0 0.00 0.00 0.00 49 1010.9
20260509041623 36 135 4.8 6.4 0.00 0.00 0.00 50 1011.0
20260509041417 36 135 3.2 6.4 0.00 0.00 0.00 51 1011.0
20260509041221 36 75 4.8 6.4 0.00 0.00 0.00 51 1011.1
20260509041015 35 45 4.8 11.3 0.00 0.00 0.00 52 1011.2
20260509040820 35 315 1.6 4.8 0.00 0.00 0.00 51 1011.2
20260509040624 35 135 1.6 4.8 0.00 0.00 0.00 52 1011.2
20260509040418 35 45 4.8 6.4 0.00 0.00 0.00 52 1011.3
20260509040223 34 135 4.8 8.0 0.00 0.00 0.00 52 1011.3
20260509040017 34 135 6.4 9.7 0.00 0.00 0.00 52 1011.4
20260509035821 34 135 0.0 9.7 0.00 0.00 0.00 54 1011.4
20260509035626 33 0.0 0.0 0.00 0.00 0.00 54 1011.5
20260509035419 33 135 1.6 4.8 0.00 0.00 0.00 55 1011.6
20260509035224 33 135 4.8 8.0 0.00 0.00 0.00 55 1011.6
20260509035018 33 135 6.4 11.3 0.00 0.00 0.00 55 1011.6
20260509034822 33 135 3.2 11.3 0.00 0.00 0.00 56 1011.6
20260509034616 32 135 3.2 4.8 0.00 0.00 0.00 55 1011.7
20260509034421 32 135 4.8 8.0 0.00 0.00 0.00 55 1011.6
20260509034225 33 135 6.4 9.7 0.00 0.00 0.00 54 1011.6
20260509034020 33 135 6.4 9.7 0.00 0.00 0.00 54 1011.6
20260509033824 33 135 3.2 8.0 0.00 0.00 0.00 53 1011.7
20260509033618 33 154 3.2 6.4 0.00 0.00 0.00 53 1011.7
20260509033422 33 135 4.8 6.4 0.00 0.00 0.00 53 1011.7
20260509033216 33 135 1.6 6.4 0.00 0.00 0.00 52 1011.8
20260509033021 33 135 3.2 6.4 0.00 0.00 0.00 52 1011.7
20260509032825 33 135 6.4 9.7 0.00 0.00 0.00 52 1011.8
20260509032620 34 135 3.2 9.7 0.00 0.00 0.00 52 1011.7
20260509032424 34 135 3.2 6.4 0.00 0.00 0.00 52 1011.7
20260509032218 34 145 3.2 6.4 0.00 0.00 0.00 53 1011.7
20260509032022 33 150 3.2 6.4 0.00 0.00 0.00 52 1011.7
20260509031817 33 172 4.8 8.0 0.00 0.00 0.00 52 1011.6
20260509031621 33 135 6.4 9.7 0.00 0.00 0.00 52 1011.7
20260509031426 33 163 4.8 9.7 0.00 0.00 0.00 53 1011.6
20260509031219 33 147 3.2 6.4 0.00 0.00 0.00 52 1011.7
20260509031024 33 135 4.8 8.0 0.00 0.00 0.00 52 1011.7
20260509030818 33 135 4.8 8.0 0.00 0.00 0.00 52 1011.7
20260509030622 33 135 3.2 8.0 0.00 0.00 0.00 51 1011.7
20260509030417 34 135 6.4 9.7 0.00 0.00 0.00 51 1011.7
20260509030221 35 135 3.2 9.7 0.00 0.00 0.00 53 1011.7
20260509030025 34 0.0 0.0 0.00 0.00 0.00 54 1011.7
20260509025819 34 0.0 0.0 0.00 0.00 0.00 53 1011.7
20260509025624 34 135 1.6 6.4 0.00 0.00 0.00 52 1011.7
20260509025418 34 135 3.2 6.4 0.00 0.00 0.00 53 1011.7
20260509025222 34 135 3.2 4.8 0.00 0.00 0.00 53 1011.7
20260509025016 34 135 3.2 6.4 0.00 0.00 0.00 53 1011.7
20260509024821 34 135 4.8 8.0 0.00 0.00 0.00 54 1011.7
20260509024625 34 0.0 6.4 0.00 0.00 0.00 55 1011.7
20260509024420 33 1.6 3.2 0.00 0.00 0.00 54 1011.7
20260509024224 33 1.6 3.2 0.00 0.00 0.00 54 1011.8
20260509024018 33 1.6 3.2 0.00 0.00 0.00 54 1011.7
20260509023822 33 0.0 3.2 0.00 0.00 0.00 53 1011.8
20260509023616 34 135 3.2 6.4 0.00 0.00 0.00 53 1011.8
20260509023421 34 135 1.6 4.8 0.00 0.00 0.00 54 1011.8
20260509023225 34 135 0.0 3.2 0.00 0.00 0.00 56 1011.8
20260509023019 34 0.0 0.0 0.00 0.00 0.00 57 1011.8
20260509022824 33 0.0 0.0 0.00 0.00 0.00 57 1011.8
20260509022618 33 135 0.0 3.2 0.00 0.00 0.00 57 1011.8
20260509022422 33 135 0.0 3.2 0.00 0.00 0.00 59 1011.8
20260509022216 34 135 3.2 4.8 0.00 0.00 0.00 60 1011.9
20260509022021 34 0.0 0.0 0.00 0.00 0.00 60 1011.9
20260509021825 33 0.0 0.0 0.00 0.00 0.00 60 1011.9
20260509021619 33 0.0 0.0 0.00 0.00 0.00 60 1012.0
20260509021424 33 0.0 0.0 0.00 0.00 0.00 60 1012.0
20260509021218 33 0.0 0.0 0.00 0.00 0.00 60 1011.9
20260509021022 33 0.0 0.0 0.00 0.00 0.00 61 1012.0
20260509020816 32 0.0 0.0 0.00 0.00 0.00 61 1012.0
20260509020621 32 0.0 0.0 0.00 0.00 0.00 60 1012.0
20260509020425 32 0.0 0.0 0.00 0.00 0.00 60 1012.0
20260509020219 32 0.0 3.2 0.00 0.00 0.00 61 1012.0
20260509020024 32 45 1.6 4.8 0.00 0.00 0.00 61 1012.0
20260509015818 32 1.6 4.8 0.00 0.00 0.00 61 1012.0
20260509015622 32 135 1.6 4.8 0.00 0.00 0.00 62 1012.0
20260509015416 32 0.0 3.2 0.00 0.00 0.00 62 1012.0
20260509015221 32 0.0 1.6 0.00 0.00 0.00 62 1012.1
20260509015025 32 0.0 3.2 0.00 0.00 0.00 64 1012.1
20260509014819 32 180 1.6 3.2 0.00 0.00 0.00 65 1012.0
20260509014624 32 315 3.2 4.8 0.00 0.00 0.00 66 1012.1
20260509014418 32 135 1.6 6.4 0.00 0.00 0.00 66 1012.1
20260509014222 32 225 1.6 6.4 0.00 0.00 0.00 68 1012.1
20260509014016 32 0.0 0.0 0.00 0.00 0.00 68 1012.1
20260509013821 31 0.0 0.0 0.00 0.00 0.00 68 1012.1
20260509013625 31 45 0.0 3.2 0.00 0.00 0.00 68 1012.1
20260509013419 31 168 3.2 4.8 0.00 0.00 0.00 68 1012.1
20260509013224 31 243 3.2 8.0 0.00 0.00 0.00 68 1012.2
20260509013017 31 273 3.2 8.0 0.00 0.00 0.00 70 1012.2
20260509012822 31 165 4.8 6.4 0.00 0.00 0.00 70 1012.2
20260509012616 31 94 3.2 6.4 0.00 0.00 0.00 70 1012.2
20260509012420 31 357 3.2 6.4 0.00 0.00 0.00 70 1012.2
20260509012225 30 328 4.8 6.4 0.00 0.00 0.00 70 1012.2
20260509012019 30 45 4.8 6.4 0.00 0.00 0.00 70 1012.2
20260509011823 30 135 3.2 4.8 0.00 0.00 0.00 71 1012.2
20260509011617 30 1.6 3.2 0.00 0.00 0.00 71 1012.3
20260509011422 30 180 1.6 4.8 0.00 0.00 0.00 71 1012.3
20260509011216 30 336 3.2 6.4 0.00 0.00 0.00 71 1012.3
20260509011020 30 230 3.2 6.4 0.00 0.00 0.00 71 1012.3
20260509010825 30 188 3.2 4.8 0.00 0.00 0.00 71 1012.3
20260509010619 30 221 3.2 4.8 0.00 0.00 0.00 72 1012.3
20260509010423 29 180 1.6 3.2 0.00 0.00 0.00 72 1012.3
20260509010217 29 1.6 3.2 0.00 0.00 0.00 72 1012.2
20260509010022 29 206 1.6 3.2 0.00 0.00 0.00 73 1012.3
20260509005816 29 58 3.2 3.2 0.00 0.00 0.00 73 1012.3
20260509005620 29 202 3.2 4.8 0.00 0.00 0.00 74 1012.3
20260509005425 29 315 1.6 4.8 0.00 0.00 0.00 74 1012.3
20260509005219 29 315 0.0 3.2 0.00 0.00 0.00 74 1012.4
20260509005023 28 216 1.6 3.2 0.00 0.00 0.00 74 1012.3
20260509004817 28 135 0.0 3.2 0.00 0.00 0.00 74 1012.2
20260509004622 28 0.0 1.6 0.00 0.00 0.00 74 1012.2
20260509004416 28 180 1.6 4.8 0.00 0.00 0.00 74 1012.2
20260509004220 28 139 4.8 6.4 0.00 0.00 0.00 74 1012.2
20260509004025 28 135 1.6 4.8 0.00 0.00 0.00 75 1012.2
20260509003819 28 0.0 3.2 0.00 0.00 0.00 75 1012.2
20260509003623 28 180 1.6 3.2 0.00 0.00 0.00 75 1012.1
20260509003417 28 135 1.6 4.8 0.00 0.00 0.00 75 1012.1
20260509003222 28 115 3.2 4.8 0.00 0.00 0.00 75 1012.1
20260509003016 28 125 4.8 6.4 0.00 0.00 0.00 75 1012.1
20260509002820 28 160 3.2 6.4 0.00 0.00 0.00 76 1012.1
20260509002625 28 0.0 4.8 0.00 0.00 0.00 76 1012.1
20260509002440 27 0.0 3.2 0.00 0.00 0.00 76 1012.1
20260509002223 27 0.0 3.2 0.00 0.00 0.00 76 1012.1
20260509002017 27 170 3.2 4.8 0.00 0.00 0.00 76 1012.0
20260509001822 27 180 3.2 4.8 0.00 0.00 0.00 76 1012.0
20260509001616 27 152 3.2 3.2 0.00 0.00 0.00 76 1012.0
20260509001421 27 225 3.2 6.4 0.00 0.00 0.00 76 1011.9
20260509001225 27 184 1.6 4.8 0.00 0.00 0.00 76 1011.9
20260509001019 27 197 3.2 6.4 0.00 0.00 0.00 77 1011.9
20260509000824 27 172 3.2 6.4 0.00 0.00 0.00 77 1011.8
20260509000618 27 211 3.2 4.8 0.00 0.00 0.00 77 1011.8
20260509000422 27 150 4.8 6.4 0.00 0.00 0.00 77 1011.9
20260509000216 27 201 4.8 6.4 0.00 0.00 0.00 78 1011.9
20260509000020 27 192 4.8 6.4 0.00 0.00 0.00 78 1011.8
20260508235825 27 178 3.2 6.4 0.00 0.00 0.00 79 1011.8
20260508235619 27 0.0 0.0 0.00 0.00 0.00 82 1011.8
20260508235423 27 0.0 3.2 0.00 0.00 0.00 82 1011.8
20260508235217 27 0.0 1.6 0.00 0.00 0.00 82 1011.8
20260508235022 27 162 3.2 4.8 0.00 0.00 0.00 83 1011.8
20260508234816 27 135 1.6 4.8 0.00 0.00 0.00 83 1011.7
20260508234620 27 217 3.2 6.4 0.00 0.00 0.00 83 1011.6
20260508234425 27 1.6 4.8 0.00 0.00 0.00 83 1011.6
20260508234219 27 190 3.2 6.4 0.00 0.00 0.00 83 1011.6
20260508234023 27 0.0 6.4 0.00 0.00 0.00 83 1011.5
20260508233818 27 0.0 0.0 0.00 0.00 0.00 83 1011.4
20260508233622 27 0.0 0.0 0.00 0.00 0.00 83 1011.5
20260508233416 27 180 1.6 4.8 0.00 0.00 0.00 84 1011.4
20260508233220 27 205 3.2 4.8 0.00 0.00 0.00 84 1011.4
20260508233025 26 146 1.6 4.8 0.00 0.00 0.00 84 1011.4
20260508232819 26 135 0.0 3.2 0.00 0.00 0.00 84 1011.3
20260508232623 26 135 3.2 4.8 0.00 0.00 0.00 84 1011.3
20260508232417 26 135 1.6 4.8 0.00 0.00 0.00 84 1011.3
20260508232222 26 135 3.2 4.8 0.00 0.00 0.00 84 1011.3
20260508232016 26 315 1.6 4.8 0.00 0.00 0.00 84 1011.3
20260508231820 26 157 1.6 3.2 0.00 0.00 0.00 84 1011.2
20260508231625 26 191 3.2 3.2 0.00 0.00 0.00 83 1011.2
20260508231419 26 154 1.6 3.2 0.00 0.00 0.00 83 1011.2
20260508231223 26 225 1.6 3.2 0.00 0.00 0.00 83 1011.1
20260508231017 26 155 1.6 3.2 0.00 0.00 0.00 83 1011.1
20260508230822 26 253 1.6 3.2 0.00 0.00 0.00 83 1010.9
20260508230616 26 315 0.0 3.2 0.00 0.00 0.00 83 1011.0
20260508230420 26 0.0 0.0 0.00 0.00 0.00 83 1010.9
20260508230225 26 0.0 0.0 0.00 0.00 0.00 83 1010.9
20260508230019 26 0.0 0.0 0.00 0.00 0.00 83 1010.9
20260508225823 26 338 0.0 3.2 0.00 0.00 0.00 83 1010.9
20260508225617 26 1 1.6 3.2 0.00 0.00 0.00 82 1010.9
20260508225422 26 192 0.0 3.2 0.00 0.00 0.00 82 1010.9
20260508225216 26 225 0.0 3.2 0.00 0.00 0.00 82 1010.9
20260508225020 26 225 0.0 3.2 0.00 0.00 0.00 82 1011.0
20260508224825 26 225 1.6 3.2 0.00 0.00 0.00 82 1010.9
20260508224619 26 238 1.6 3.2 0.00 0.00 0.00 82 1010.9
20260508224423 26 0.0 0.0 0.00 0.00 0.00 82 1010.9
20260508224217 26 0.0 0.0 0.00 0.00 0.00 82 1010.8
20260508224022 26 0.0 0.0 0.00 0.00 0.00 82 1010.8
20260508223816 26 0.0 0.0 0.00 0.00 0.00 82 1010.8
20260508223620 26 0.0 0.0 0.00 0.00 0.00 82 1010.8
20260508223425 26 0.0 0.0 0.00 0.00 0.00 81 1010.8
20260508223219 26 0.0 0.0 0.00 0.00 0.00 81 1010.8
20260508223023 26 0.0 0.0 0.00 0.00 0.00 81 1010.8
20260508222817 26 0.0 1.6 0.00 0.00 0.00 81 1010.8
20260508222622 26 0.0 3.2 0.00 0.00 0.00 81 1010.7
20260508222416 26 45 3.2 4.8 0.00 0.00 0.00 81 1010.8
20260508222220 26 175 1.6 4.8 0.00 0.00 0.00 81 1010.7
20260508222025 26 228 1.6 3.2 0.00 0.00 0.00 81 1010.7
20260508221819 26 315 0.0 3.2 0.00 0.00 0.00 81 1010.7
20260508221623 26 0.0 0.0 0.00 0.00 0.00 81 1010.6
20260508221417 26 0.0 0.0 0.00 0.00 0.00 81 1010.6
20260508221222 26 0.0 0.0 0.00 0.00 0.00 81 1010.6
20260508221016 26 0.0 0.0 0.00 0.00 0.00 81 1010.6
20260508220820 26 0.0 0.0 0.00 0.00 0.00 81 1010.6
20260508220625 26 0.0 0.0 0.00 0.00 0.00 81 1010.5
20260508220419 26 0.0 0.0 0.00 0.00 0.00 81 1010.5
20260508220223 26 0.0 0.0 0.00 0.00 0.00 81 1010.5
20260508220017 26 0.0 0.0 0.00 0.00 0.00 81 1010.5
20260508215822 26 0.0 0.0 0.00 0.00 0.00 81 1010.4
20260508215616 26 0.0 0.0 0.00 0.00 0.00 81 1010.4
20260508215420 26 0.0 0.0 0.00 0.00 0.00 81 1010.4
20260508215225 26 0.0 0.0 0.00 0.00 0.00 81 1010.4
20260508215019 26 0.0 0.0 0.00 0.00 0.00 81 1010.4
20260508214823 26 0.0 0.0 0.00 0.00 0.00 81 1010.3
20260508214617 26 0.0 0.0 0.00 0.00 0.00 81 1010.3
20260508214422 26 0.0 0.0 0.00 0.00 0.00 81 1010.3
20260508214216 26 0.0 0.0 0.00 0.00 0.00 81 1010.4
20260508214020 27 0.0 0.0 0.00 0.00 0.00 81 1010.3
20260508213825 27 0.0 0.0 0.00 0.00 0.00 81 1010.3
20260508213618 27 0.0 0.0 0.00 0.00 0.00 81 1010.2
20260508213423 27 0.0 0.0 0.00 0.00 0.00 81 1010.2
20260508213217 26 0.0 0.0 0.00 0.00 0.00 81 1010.3
20260508213021 26 0.0 0.0 0.00 0.00 0.00 81 1010.3